Weather WX

World > North America > United States > Missouri

Goldsberry, Missouri Regional Weather

Lat: 39.96N, Lon: 92.77W
Wx Zone: MOZ025
Warning FLW WEATHER ALERT - (More Info. Click Here) Warning
Feedback

Goldsberry, MO Regional Weather

Expires:201906190000;;702411
ASUS43 KEAX 182310
RWREAX

WEATHER ROUNDUP FOR EASTERN KANSAS AND NORTHWEST MISSOURI
NATIONAL WEATHER SERVICE KANSAS CITY/PLEASANT HILL MO
600 PM CDT TUE JUN 18 2019


MOZ001>008-011>017-020>025-030>033-038>040-044>046-053-054-190000-
...NORTHERN AND CENTRAL MISSOURI...
  
CITY           SKY/WX    TMP DP  RH WIND       PRES   REMARKS
ST. JOSEPH     LGT RAIN  75  67  76 CALM      29.87R                  
MOSBY          MOCLDY    77  63  61 CALM      29.86R                  
WARRENSBURG    MOSUNNY   79  64  61 SE5       29.84R                  
WHITEMAN AFB   PTSUNNY   79  69  69 SE6       29.79F                  
CLINTON        SUNNY     81  66  61 CALM      29.84S                  
SEDALIA        MOSUNNY   79  68  69 E7        29.85F                  
WARSAW         NOT AVBL                                               
CHILLICOTHE      N/A     76  66  71 SE3       29.86F                  
KIRKSVILLE     SUNNY     80  64  58 E6        29.86F                  

$$


SKY/WX - Weather  TMP - Temperature  DP - Dew Point  RH - Relative Humidity
WIND - Wind Direction/Speed PRES - Barometric Pressure VSB - Visibility
WCI - Wind Chill Index E13G22 Wind - East Wind 13 mph/Gusts of 22 mph